[[{"header":{"parameterUnit":"m.s-1","parameterCategory":1,"la1":30.2991,"la2":30.254,"lo1":-89.0895,"lo2":-89.0444,"dy":0.0017,"dx":0.0017,"nx":28,"ny":28,"refTime":"2024-10-13T09:00:00:Z","depth":0,"parameterNumber":2,"parameterNumberName":"U-component_of_WINDS"},"data":[0,0,0,0,0,0,0,0,0,0,0,0,0,0,0,0,0,0,0,0,0,0,0,0,0,0,0,0,0,0,0,0,0,0,0,0,0,0,0,0,0,0,0,0,0,0,0,0,0,0,0,0,0,0,0,0,0,0,4.1271,4.1272,0,4.1407,4.1409,4.141,4.1341,4.1338,4.1334,4.1331,4.1472,4.1479,4.1486,0,0,0,0,0,0,0,0,0,0,0,0,0,4.0952,4.0959,4.1271,4.1272,4.1274,4.1407,4.1409,4.1411,4.1342,4.1337,4.1333,4.1329,4.1469,4.1478,4.1486,0,0,0,0,0,0,0,0,0,0,0,0,0,4.109,4.0961,4.127,4.1256,4.1256,4.1407,4.1409,4.1411,4.1343,4.1337,4.1332,4.1327,4.1467,4.1477,4.1488,4.1661,0,0,4.152,4.1525,0,0,0,0,0,0,0,0,4.1082,4.1102,4.1256,4.1257,4.1257,4.1352,4.1348,4.1495,4.1344,4.131,4.133,4.1324,4.1436,4.1449,4.1487,4.1668,4.1674,4.1521,4.1528,4.1532,4.1535,0,0,0,0,0,0,0,4.1073,4.1096,4.1325,4.1258,4.1259,4.1243,4.1257,4.1376,4.1402,4.1312,4.1308,4.1325,4.1436,4.1476,4.1489,4.1676,4.1521,4.153,4.1537,4.1541,4.2008,4.2014,0,0,0,0,0,0,4.1064,4.1088,4.132,4.1329,4.1155,4.1253,4.1268,4.1327,4.14,4.1406,4.1329,4.1321,4.1461,4.1477,4.1494,4.1703,4.1532,4.1542,4.1548,4.2002,4.201,4.2016,0,0,0,0,0,0,4.1057,4.1085,4.1315,4.1207,4.1235,4.1264,4.1331,4.1332,4.1373,4.1413,4.1417,4.1366,4.1457,4.1479,4.162,4.1706,4.1547,4.1557,4.1995,4.2005,4.2013,4.2121,0,0,0,0,0,0,4.1048,4.1083,4.1149,4.1209,4.1241,4.1438,4.1336,4.1339,4.1392,4.1382,4.1449,4.1454,4.1455,4.1605,4.1631,4.1718,4.1565,4.1988,4.1999,4.201,4.211,4.2133,4.2152,0,0,0,0,0,4.1037,4.1174,4.1152,4.1181,4.1324,4.1443,4.1462,4.1459,4.1399,4.1465,4.1491,4.1452,4.1693,4.162,4.1649,4.1741,4.1982,4.1996,4.2009,4.21,4.2128,4.2151,0,0,0,0,0,0,4.1122,4.1181,4.1158,4.1318,4.1377,4.1431,4.1515,4.1488,4.1565,4.1553,4.1547,4.1562,4.1709,4.1739,4.1656,4.1913,4.1829,4.1849,4.1888,4.1915,4.1935,4.1924,4.1574,0,0,0,0,0,4.116,4.1252,4.1298,4.1435,4.1466,4.1486,4.1538,4.1531,4.1591,4.1615,4.1651,4.1711,4.1801,4.186,4.1944,4.2115,4.2128,4.2192,4.2213,4.223,4.2247,4.2341,4.237,4.2061,4.206,4.206,0,0,4.1238,4.1282,4.134,4.1453,4.1497,4.1593,4.1507,4.1611,4.1683,4.1631,4.1766,4.1796,4.1863,4.202,4.2091,4.2049,4.2336,4.2248,4.2261,4.2269,4.2357,4.2387,4.2413,4.207,4.2068,4.2067,0,0,4.1429,4.1471,4.159,4.1636,4.1705,4.1718,4.1746,4.1806,4.1824,4.196,4.1923,4.2009,4.2162,4.2212,4.2257,4.247,4.2437,4.2498,4.2608,4.2699,4.2723,4.2744,4.282,4.2848,4.2515,4.2515,4.2516,0,4.1517,4.1659,4.1654,4.1763,4.1814,4.1772,4.1893,4.1939,4.2031,4.2068,4.2021,4.2214,4.2256,4.2424,4.2477,4.2515,4.2548,4.2489,4.272,4.2741,4.2761,4.2834,4.2862,4.2522,4.2521,4.2521,4.252,0,4.1765,4.1864,4.1952,4.2043,4.2105,4.2219,4.2232,4.2295,4.2284,4.2302,4.2442,4.2492,4.2586,4.2626,4.2615,4.2793,4.2765,4.272,4.2634,4.2798,4.2865,4.2893,4.2532,4.253,4.2527,4.2526,0,0,4.2011,4.2099,4.2131,4.2172,4.2245,4.2323,4.2436,4.2528,4.2582,4.2649,4.2743,4.2876,4.2834,4.2886,4.2881,4.2961,4.3127,4.2905,4.2907,4.2944,4.3327,4.336,4.3392,4.3107,4.3112,4.3116,4.3321,0,4.2206,4.2403,4.2403,4.2585,4.2677,4.2641,4.2739,4.2796,4.2817,4.2899,4.2922,4.3016,4.2954,4.2985,4.3063,4.309,4.3203,4.3076,4.3195,4.3199,4.3178,4.3427,4.3462,4.3653,4.3347,4.3352,4.3355,0,4.246,4.2535,4.2726,4.2787,4.2826,4.2914,4.2999,4.3078,4.3142,4.3152,4.3211,4.3195,4.3311,4.3223,4.3384,4.3297,4.3346,4.3368,4.3375,4.3385,4.3286,4.3443,4.3714,4.3742,4.3397,4.3393,4.339,0,4.262,4.2768,4.2902,4.2938,4.3013,4.3076,4.3111,4.3169,4.3225,4.33,4.3336,4.3424,4.3472,4.3541,4.355,4.3485,4.3712,4.3624,4.3723,4.3723,4.3771,4.3767,4.4052,4.3805,4.3804,4.3804,4.3803,0,4.2837,4.2956,4.2975,4.3057,4.3189,4.3189,4.332,4.3349,4.3402,4.3489,4.3464,4.3547,4.3554,4.364,4.3648,4.3779,4.3802,4.3813,4.3813,4.3815,4.3813,4.3846,4.3832,4.3812,4.381,4.3808,4.3807,0,4.3037,4.3054,4.3198,4.3258,4.3276,4.337,4.3422,4.3501,4.352,4.3632,4.3658,4.3689,4.3789,4.3805,4.3922,4.3927,4.4085,4.4073,4.4064,4.4061,4.4159,4.4149,4.4473,4.4516,4.4242,4.4245,4.4247,0,4.3174,4.3264,4.3334,4.3391,4.3428,4.352,4.3577,4.3582,4.3643,4.3724,4.3793,4.3891,4.3968,4.4131,4.4164,4.4254,4.4243,4.435,4.4256,4.4255,4.4244,4.4238,4.4247,4.4368,4.4371,4.4373,4.4375,0,4.3415,4.342,4.3502,4.359,4.3658,4.3727,4.3792,4.384,4.3854,4.3923,4.4025,4.4086,4.4207,4.4304,4.4394,4.443,4.4406,4.4405,4.4433,4.4434,4.4424,4.443,4.4112,4.4397,4.4395,4.4393,4.4392,4.4391,4.3587,4.3665,4.3727,4.3821,4.3871,4.3932,4.401,4.4039,4.4124,4.4222,4.422,4.4333,4.4396,4.4514,4.4557,4.4645,4.4611,4.4651,4.466,4.467,4.4679,4.4412,4.4662,4.4661,4.4661,4.466,4.466,0,4.3826,4.3864,4.3951,4.4042,4.4117,4.4088,4.4159,4.4223,4.4321,4.4383,4.446,4.4578,4.4673,4.4715,4.4809,4.4872,4.4863,4.4896,4.4891,4.4899,4.4705,4.4671,4.4902,4.4901,4.4901,4.4901,4.4901,4.4901,4.3959,4.409,4.4103,4.426,4.4298,4.4407,4.445,4.4507,4.4556,4.4689,4.4767,4.4794,4.4848,4.4946,4.5032,4.5042,4.5077,4.5116,4.512,4.4938,4.4913,4.489,4.4858,4.5123,4.5124,4.5307,4.5309,4.531]},{"header":{"parameterUnit":"m.s-1","parameterCategory":1,"la1":30.2991,"la2":30.254,"lo1":-89.0895,"lo2":-89.0444,"dy":0.0017,"dx":0.0017,"nx":28,"ny":28,"refTime":"2024-10-13T09:00:00:Z","depth":0,"parameterNumber":3,"parameterNumberName":"V-component_of_WINDS"},"data":[0,0,0,0,0,0,0,0,0,0,0,0,0,0,0,0,0,0,0,0,0,0,0,0,0,0,0,0,0,0,0,0,0,0,0,0,0,0,0,0,0,0,0,0,0,0,0,0,0,0,0,0,0,0,0,0,0,0,-0.6582,-0.6583,0,-0.6654,-0.6654,-0.6655,-0.6682,-0.6681,-0.6681,-0.6681,-0.6755,-0.6757,-0.6759,0,0,0,0,0,0,0,0,0,0,0,0,0,-0.6469,-0.6471,-0.6582,-0.6583,-0.6584,-0.6654,-0.6655,-0.6655,-0.6682,-0.6681,-0.6681,-0.6681,-0.6754,-0.6756,-0.6759,0,0,0,0,0,0,0,0,0,0,0,0,0,-0.6527,-0.6472,-0.6582,-0.6605,-0.6608,-0.6653,-0.6655,-0.6656,-0.6682,-0.6681,-0.6681,-0.6681,-0.6753,-0.6756,-0.6759,-0.6787,0,0,-0.6769,-0.6771,0,0,0,0,0,0,0,0,-0.6524,-0.6531,-0.6601,-0.6604,-0.6607,-0.6658,-0.6642,-0.67,-0.6682,-0.6654,-0.6681,-0.6681,-0.6723,-0.6729,-0.6743,-0.679,-0.6793,-0.677,-0.6772,-0.6773,-0.6774,0,0,0,0,0,0,0,-0.652,-0.6528,-0.661,-0.6602,-0.6606,-0.6613,-0.662,-0.6653,-0.6689,-0.6656,-0.6658,-0.6666,-0.6724,-0.674,-0.6745,-0.6794,-0.6769,-0.6772,-0.6774,-0.6776,-0.6869,-0.6869,0,0,0,0,0,0,-0.6512,-0.6525,-0.6608,-0.6612,-0.6564,-0.6615,-0.6624,-0.6642,-0.6689,-0.6696,-0.6667,-0.6667,-0.6734,-0.6741,-0.6747,-0.6783,-0.6773,-0.6776,-0.6778,-0.6868,-0.6869,-0.687,0,0,0,0,0,0,-0.6509,-0.6519,-0.6605,-0.6569,-0.6581,-0.6617,-0.6638,-0.6644,-0.6659,-0.6697,-0.6704,-0.6675,-0.6734,-0.6743,-0.6777,-0.6786,-0.6777,-0.678,-0.6868,-0.6869,-0.6869,-0.6854,0,0,0,0,0,0,-0.6506,-0.6518,-0.6528,-0.6569,-0.6583,-0.6633,-0.6638,-0.6645,-0.6665,-0.6666,-0.6707,-0.6713,-0.6735,-0.6772,-0.678,-0.679,-0.6783,-0.6867,-0.6868,-0.6869,-0.6854,-0.6854,-0.6854,0,0,0,0,0,-0.6502,-0.6521,-0.6528,-0.6538,-0.6596,-0.6633,-0.6641,-0.6665,-0.6665,-0.6676,-0.6701,-0.6712,-0.6784,-0.6775,-0.6785,-0.6796,-0.6867,-0.6868,-0.6869,-0.6854,-0.6854,-0.6854,0,0,0,0,0,0,-0.6479,-0.6526,-0.6536,-0.6568,-0.6597,-0.6638,-0.6652,-0.6665,-0.6693,-0.6694,-0.6722,-0.6731,-0.6763,-0.6783,-0.6773,-0.6825,-0.6826,-0.6829,-0.6811,-0.6812,-0.6812,-0.6806,-0.6786,0,0,0,0,0,-0.6478,-0.6504,-0.6544,-0.6569,-0.6583,-0.6615,-0.6632,-0.6649,-0.6679,-0.6691,-0.6718,-0.6748,-0.6777,-0.6796,-0.6825,-0.6857,-0.6867,-0.687,-0.687,-0.687,-0.6872,-0.6892,-0.6894,-0.6873,-0.6873,-0.6873,0,0,-0.6476,-0.6505,-0.652,-0.6566,-0.659,-0.6616,-0.6625,-0.6653,-0.6673,-0.6695,-0.6729,-0.6751,-0.6785,-0.6819,-0.6835,-0.6836,-0.688,-0.6871,-0.6871,-0.6873,-0.6893,-0.6895,-0.6897,-0.6874,-0.6874,-0.6874,0,0,-0.6486,-0.6511,-0.6535,-0.6559,-0.6595,-0.6616,-0.6622,-0.6662,-0.6677,-0.6711,-0.6729,-0.6754,-0.6803,-0.6828,-0.6846,-0.6867,-0.6879,-0.6876,-0.6877,-0.6896,-0.6898,-0.6899,-0.6907,-0.691,-0.6878,-0.6878,-0.6878,0,-0.6479,-0.652,-0.6545,-0.6573,-0.6593,-0.6614,-0.6639,-0.6662,-0.6705,-0.6719,-0.672,-0.6783,-0.6808,-0.6848,-0.6853,-0.6868,-0.6876,-0.6871,-0.6895,-0.6897,-0.6899,-0.6907,-0.691,-0.6878,-0.6878,-0.6878,-0.6878,0,-0.651,-0.6538,-0.6553,-0.6595,-0.6617,-0.6643,-0.6673,-0.6692,-0.6706,-0.6728,-0.6764,-0.6795,-0.6831,-0.6841,-0.6856,-0.6884,-0.6884,-0.689,-0.6891,-0.69,-0.6908,-0.6911,-0.6877,-0.6877,-0.6877,-0.6877,0,0,-0.6506,-0.6563,-0.6568,-0.6588,-0.663,-0.6653,-0.668,-0.6716,-0.6732,-0.6762,-0.6786,-0.6828,-0.6834,-0.6855,-0.6873,-0.6889,-0.6905,-0.6894,-0.6895,-0.6895,-0.6939,-0.6934,-0.6937,-0.6913,-0.6914,-0.6914,-0.6936,0,-0.6522,-0.6572,-0.6596,-0.6635,-0.6662,-0.6684,-0.6708,-0.6737,-0.6758,-0.6784,-0.6808,-0.6837,-0.6843,-0.6856,-0.6874,-0.6899,-0.6914,-0.6898,-0.6936,-0.6937,-0.6926,-0.6941,-0.6936,-0.6954,-0.6939,-0.694,-0.694,0,-0.6547,-0.6577,-0.6618,-0.6658,-0.6671,-0.6692,-0.6727,-0.6751,-0.6785,-0.6799,-0.6824,-0.6841,-0.6872,-0.6871,-0.6914,-0.6902,-0.692,-0.6935,-0.6936,-0.694,-0.6939,-0.6945,-0.6961,-0.6963,-0.6945,-0.6945,-0.6944,0,-0.6541,-0.6592,-0.6623,-0.664,-0.6687,-0.6701,-0.6722,-0.6755,-0.6775,-0.6806,-0.682,-0.6853,-0.6872,-0.6898,-0.6925,-0.6922,-0.6965,-0.6966,-0.6978,-0.6978,-0.6986,-0.6985,-0.7004,-0.6997,-0.6997,-0.6997,-0.6997,0,-0.6555,-0.658,-0.6621,-0.6641,-0.667,-0.6698,-0.6726,-0.6748,-0.6778,-0.6802,-0.6824,-0.6846,-0.688,-0.6907,-0.6928,-0.6961,-0.6969,-0.6982,-0.6987,-0.698,-0.6978,-0.6991,-0.6991,-0.6998,-0.6998,-0.6998,-0.6997,0,-0.6553,-0.6582,-0.6618,-0.666,-0.6671,-0.6691,-0.6727,-0.6747,-0.677,-0.6801,-0.681,-0.6846,-0.6879,-0.6908,-0.6952,-0.6967,-0.7,-0.7006,-0.6989,-0.6991,-0.7002,-0.7,-0.703,-0.7035,-0.7024,-0.7024,-0.7024,0,-0.6561,-0.658,-0.6625,-0.6643,-0.6663,-0.6692,-0.6713,-0.6742,-0.6763,-0.6803,-0.6819,-0.6854,-0.6883,-0.6935,-0.6966,-0.7,-0.7007,-0.7015,-0.7012,-0.7005,-0.7008,-0.7006,-0.7008,-0.7015,-0.7015,-0.7015,-0.7015,0,-0.6571,-0.6585,-0.6614,-0.6648,-0.6672,-0.6701,-0.673,-0.6743,-0.6778,-0.6801,-0.6835,-0.6858,-0.6903,-0.6938,-0.6976,-0.6997,-0.7012,-0.7016,-0.702,-0.7013,-0.7002,-0.7008,-0.6989,-0.7015,-0.7015,-0.7015,-0.7015,-0.7015,-0.6574,-0.6593,-0.6628,-0.6659,-0.6685,-0.6711,-0.6733,-0.6758,-0.6788,-0.6827,-0.6842,-0.6877,-0.6912,-0.6964,-0.6986,-0.7014,-0.7017,-0.7023,-0.7025,-0.7026,-0.7025,-0.6997,-0.7021,-0.7021,-0.7021,-0.7021,-0.7021,0,-0.6586,-0.661,-0.6639,-0.6679,-0.6704,-0.6716,-0.6749,-0.677,-0.68,-0.6831,-0.686,-0.69,-0.6934,-0.6967,-0.7003,-0.702,-0.7027,-0.7028,-0.7027,-0.7032,-0.7021,-0.7013,-0.7021,-0.7021,-0.7021,-0.7021,-0.7021,-0.7021,-0.6595,-0.6628,-0.6645,-0.6691,-0.6715,-0.6749,-0.6767,-0.6792,-0.6817,-0.6861,-0.6889,-0.6911,-0.6943,-0.6982,-0.7014,-0.7023,-0.7035,-0.7034,-0.7045,-0.7033,-0.7033,-0.7032,-0.7026,-0.7036,-0.7036,-0.7054,-0.7054,-0.7054]}]]